Retour au catalogue

ATLAS CENTAUR 2 DEB

ActifLEO
NORAD 739·DEBRIS·🇺🇸 United States

Lancé Nov 27, 1963 depuis Cape Canaveral Space Force Station

Loading…

Prochains Passages (prochaines 24 heures)

TLE

FraisSource: Space-Track

Époque: Sep 14, 2026, 13:06 UTC

1   739U 63047H   26257.54589874  .00000260  00000-0  31442-4 0  9997
2   739  30.4232 336.4837 0635129  72.1591 294.7224 13.85342186153785

Suivez ATLAS CENTAUR 2 DEB en temps réel avec AllMySat

Download on the App Store